Location: Tamazert
(32.6352°N, 5.2072°W)
Time: 05:11:13
(UTC+00:00)

Meteor 1-24 Rocket - Pass Details

Date: 22 May 2022
Orbit: 789 x 928 km, 81.3° (Epoch: 24 June)

Event Time Altitude Azimuth Distance (km) Brightness Sun altitude
Exits shadow 02:54:47 51° 275° (W) 1,079 4.0 -25.0°
Maximum altitude 02:54:55 51° 280° (W) 1,077 4.0 -25.0°
Drops below altitude 10° 03:00:22 10° 356° (N) 2,464 6.7 -24.2°
Sets 03:02:49 0° 2° (N) 3,381 7.6 -23.9°
